Whiteville, NC

9:24 AM EDT on October 17, 2017 (GMT -0400)
Columbus County Municipal

Weather History for KCPC - November, 2013

Change the Weather History Date:

Tuesday, November 12, 2013

  Actual Average (KCRE) Record (KCRE)
Temperature  
Mean Temperature 50 °F -  
Max Temperature 67 °F 63 °F 83 °F (1989)
Min Temperature 33 °F 44 °F 30 °F (1996)
Degree Days  
Heating Degree Days 15    
Moisture  
Dew Point 36 °F    
Average Humidity 65    
Maximum Humidity 95    
Minimum Humidity 30    
Precipitation  
Precipitation 0.00 in - - ()
Sea Level Pressure  
Sea Level Pressure 30.14 in    
Wind  
Wind Speed 3 mph (NNW)    
Max Wind Speed 14 mph    
Max Gust Speed 30 mph    
Visibility 9 miles    
Events Snow    
Averages and records for this station are not official NWS values.
T = Trace of Precipitation, MM = Missing Value Source: NWS Daily Summary

Daily Weather History Graph

Daily Weather History Graph

Search for Another Location

Airport or City:

Trip Planner

Search our weather history database for the weather conditions in past years. The results will help you decide how hot, cold, wet, or windy it might be!

Date:

Astronomy

Nov. 12, 2013 Rise Set
Actual Time 6:45 AM EST 5:12 PM EST
Civil Twilight 6:18 AM EST 5:38 PM EST
Nautical Twilight 5:48 AM EST 6:09 PM EST
Astronomical Twilight 5:18 AM EST 6:38 PM EST
Moon 2:14 PM EST (11/12) 1:45 AM EST (11/12)
Length of Visible Light 11h 20m
Length of Day
10h 27m
Waxing Gibbous, 76% of the Moon is Illuminated
Nov 12
Waxing Gibbous
Nov 17
Full
Nov 25
Last Quarter
Dec 2
New
Dec 9
First Quarter

Hourly Weather History & Observations

Time (EST) Temp. Windchill Dew Point Humidity Pressure Visibility Wind Dir Wind Speed Gust Speed Precip Events Conditions
12:15 AM 39.6 °F - 37.8 °F 93% 30.16 in 10.0 mi Calm Calm - N/A   Clear
12:35 AM 39.6 °F - 37.8 °F 93% 30.16 in 10.0 mi Calm Calm - N/A   Clear
12:55 AM 39.2 °F - 37.6 °F 94% 30.15 in 10.0 mi Calm Calm - N/A   Clear
1:15 AM 39.4 °F - 37.6 °F 93% 30.14 in 10.0 mi Calm Calm - N/A   Clear
1:35 AM 39.9 °F - 37.9 °F 93% 30.14 in 10.0 mi Calm Calm - N/A   Clear
1:55 AM 39.7 °F - 37.6 °F 92% 30.13 in 10.0 mi Calm Calm - N/A   Clear
2:15 AM 39.0 °F - 37.2 °F 93% 30.12 in 10.0 mi Calm Calm - N/A   Clear
2:35 AM 38.7 °F - 36.9 °F 93% 30.12 in 10.0 mi Calm Calm - N/A   Clear
2:55 AM 39.2 °F - 37.2 °F 93% 30.12 in 10.0 mi Calm Calm - N/A   Scattered Clouds
3:15 AM 40.3 °F - 38.1 °F 92% 30.11 in 10.0 mi Calm Calm - N/A   Scattered Clouds
3:35 AM 39.4 °F 37.2 °F 37.6 °F 93% 30.10 in 10.0 mi SW 3.5 mph - N/A   Clear
3:55 AM 41.0 °F - 38.3 °F 90% 30.10 in 10.0 mi Calm Calm - N/A   Clear
4:15 AM 39.4 °F - 37.2 °F 92% 30.10 in 10.0 mi Calm Calm - N/A   Clear
4:35 AM 39.6 °F - 37.4 °F 92% 30.10 in 10.0 mi Calm Calm - N/A   Clear
4:55 AM 39.4 °F - 37.6 °F 93% 30.10 in 10.0 mi Calm Calm - N/A   Clear
5:15 AM 39.4 °F - 37.6 °F 93% 30.10 in 10.0 mi Calm Calm - N/A   Clear
5:35 AM 38.3 °F - 36.9 °F 95% 30.10 in 10.0 mi Calm Calm - N/A   Clear
5:55 AM 38.3 °F - 36.5 °F 93% 30.10 in 10.0 mi Calm Calm - N/A   Clear
6:15 AM 38.7 °F - 37.2 °F 95% 30.10 in 10.0 mi Calm Calm - N/A   Clear
6:35 AM 38.1 °F - 36.5 °F 94% 30.10 in 10.0 mi Calm Calm - N/A   Clear
6:55 AM 37.4 °F - 35.8 °F 94% 30.10 in 10.0 mi Calm Calm - N/A   Clear
7:15 AM 38.1 °F - 36.7 °F 95% 30.11 in 10.0 mi Calm Calm - N/A   Clear
7:35 AM 40.1 °F - 38.3 °F 93% 30.11 in 10.0 mi Calm Calm - N/A   Clear
7:55 AM 42.8 °F 41.1 °F 40.1 °F 90% 30.09 in 10.0 mi South 3.5 mph - N/A   Clear
8:15 AM 46.2 °F - 41.7 °F 84% 30.11 in 10.0 mi Calm Calm - N/A   Clear
8:35 AM 50.2 °F - 41.7 °F 73% 30.11 in 10.0 mi WSW 3.5 mph - N/A   Clear
8:55 AM 53.2 °F - 41.7 °F 65% 30.11 in 10.0 mi Calm Calm - N/A   Clear
9:15 AM 55.4 °F - 42.4 °F 62% 30.10 in 10.0 mi SW 4.6 mph - N/A   Clear
9:35 AM 57.0 °F - 42.3 °F 58% 30.10 in 10.0 mi West 3.5 mph - N/A   Clear
9:55 AM 59.5 °F - 42.1 °F 52% 30.09 in 10.0 mi West 4.6 mph - N/A   Clear
10:15 AM 60.6 °F - 40.8 °F 48% 30.09 in 10.0 mi West 3.5 mph - N/A   Clear
10:35 AM 61.7 °F - 39.4 °F 44% 30.08 in 10.0 mi WNW 4.6 mph - N/A   Clear
10:55 AM 63.1 °F - 39.4 °F 42% 30.08 in 10.0 mi West 5.8 mph - N/A   Scattered Clouds
11:15 AM 63.3 °F - 39.0 °F 41% 30.07 in 10.0 mi West 3.5 mph - N/A   Mostly Cloudy
11:35 AM 64.4 °F - 39.4 °F 40% 30.06 in 7.0 mi West 3.5 mph - N/A   Mostly Cloudy
11:55 AM 64.4 °F - 37.6 °F 37% 30.06 in 7.0 mi West 4.6 mph - N/A   Mostly Cloudy
12:15 PM 65.5 °F - 38.1 °F 36% 30.05 in 10.0 mi NW 4.6 mph - N/A   Mostly Cloudy
12:35 PM 64.9 °F - 37.8 °F 37% 30.04 in 10.0 mi Calm Calm - N/A   Mostly Cloudy
12:55 PM 66.2 °F - 38.7 °F 36% 30.04 in 10.0 mi West 6.9 mph - N/A   Scattered Clouds
1:15 PM 65.3 °F - 38.1 °F 37% 30.03 in 7.0 mi Calm Calm - N/A   Mostly Cloudy
1:35 PM 66.4 °F - 37.4 °F 34% 30.03 in 7.0 mi NW 4.6 mph - N/A   Scattered Clouds
1:55 PM 66.2 °F - 37.2 °F 34% 30.03 in 10.0 mi NNW 4.6 mph - N/A   Scattered Clouds
2:15 PM 66.6 °F - 36.5 °F 33% 30.02 in 4.0 mi North 6.9 mph - N/A   Haze
2:35 PM 66.2 °F - 36.9 °F 34% 30.02 in 10.0 mi North 5.8 mph - N/A   Scattered Clouds
2:55 PM 66.7 °F - 34.2 °F 30% 30.03 in 5.0 mi North 5.8 mph - N/A   Haze
3:15 PM 65.7 °F - 33.4 °F 30% 30.04 in 7.0 mi North 6.9 mph - N/A   Mostly Cloudy
3:35 PM 64.8 °F - 33.8 °F 32% 30.04 in 7.0 mi NNE 6.9 mph - N/A   Mostly Cloudy
3:55 PM 63.5 °F - 34.0 °F 33% 30.05 in 5.0 mi NNE 5.8 mph - N/A   Haze
4:15 PM 62.8 °F - 35.2 °F 36% 30.05 in 10.0 mi North 5.8 mph - N/A   Mostly Cloudy
4:35 PM 62.2 °F - 34.9 °F 36% 30.06 in 10.0 mi NNE 6.9 mph - N/A   Overcast
4:55 PM 60.8 °F - 35.2 °F 38% 30.07 in 10.0 mi NNE 6.9 mph 17.3 mph N/A   Overcast
5:15 PM 59.4 °F - 35.8 °F 41% 30.08 in 10.0 mi NNE 6.9 mph - N/A   Overcast
5:35 PM 56.8 °F - 35.8 °F 45% 30.10 in 10.0 mi NNE 11.5 mph 19.6 mph N/A   Scattered Clouds
5:55 PM 55.4 °F - 36.5 °F 49% 30.12 in 10.0 mi NNE 8.1 mph 18.4 mph N/A   Mostly Cloudy
6:15 PM 54.5 °F - 37.4 °F 52% 30.13 in 7.0 mi NNE 13.8 mph 21.9 mph N/A   Overcast
6:35 PM 51.8 °F - 34.0 °F 51% 30.17 in 7.0 mi NNE 13.8 mph 29.9 mph N/A   Overcast
6:55 PM 49.8 °F - 31.6 °F 50% 30.20 in 10.0 mi NNE 13.8 mph 20.7 mph N/A   Overcast
7:15 PM 47.7 °F - 29.7 °F 50% 30.22 in 10.0 mi North 13.8 mph 24.2 mph N/A   Overcast
7:35 PM 46.4 °F 40.7 °F 29.5 °F 52% 30.24 in 10.0 mi NNE 12.7 mph 20.7 mph N/A   Overcast
7:55 PM 45.0 °F 40.6 °F 28.6 °F 53% 30.26 in 10.0 mi NNE 8.1 mph 24.2 mph N/A   Overcast
8:15 PM 43.3 °F 36.5 °F 26.6 °F 52% 30.27 in 10.0 mi North 13.8 mph 25.3 mph N/A   Overcast
8:35 PM 42.1 °F 35.2 °F 26.6 °F 54% 30.29 in 7.0 mi North 12.7 mph 24.2 mph N/A   Overcast
8:55 PM 41.5 °F 35.0 °F 26.8 °F 56% 30.30 in 10.0 mi North 11.5 mph 21.9 mph N/A   Overcast
9:15 PM 40.6 °F 33.4 °F 25.5 °F 55% 30.32 in 10.0 mi North 12.7 mph 23.0 mph N/A   Overcast
9:35 PM 40.1 °F 34.7 °F 26.1 °F 57% 30.34 in 10.0 mi North 8.1 mph 21.9 mph N/A   Overcast
9:55 PM 39.2 °F 31.6 °F 27.9 °F 64% 30.35 in 10.0 mi NNE 12.7 mph 20.7 mph N/A   Overcast
10:15 PM 38.5 °F 30.3 °F 27.9 °F 66% 30.36 in 10.0 mi North 13.8 mph 20.7 mph N/A   Overcast
10:35 PM 37.9 °F 30.9 °F 28.2 °F 68% 30.37 in 7.0 mi North 10.4 mph 19.6 mph N/A Snow Light Snow
10:55 PM 36.7 °F 29.4 °F 29.8 °F 76% 30.37 in 10.0 mi North 10.4 mph 17.3 mph N/A Snow Light Snow
11:15 PM 35.4 °F 28.4 °F 31.1 °F 84% 30.39 in 5.0 mi North 9.2 mph - N/A Snow Light Snow
11:35 PM 34.0 °F 28.0 °F 31.8 °F 92% 30.39 in 3.0 mi NNE 6.9 mph - N/A   Overcast
11:55 PM 33.4 °F 30.4 °F 32.0 °F 94% 30.39 in 2.5 mi North 3.5 mph - N/A Snow Light Snow